EW8865 Weather Reports


time (UTC)temp
F
wind
direction
speed
knots
gust
knots
rain 1hr
in
rain 24hr
in
rain mn
in
humidity
%
barometer
mb
20260502221003 52 140 0.0 0.0 0.00 0.43 0.43 92 1010.5
20260502215504 52 140 0.0 0.0 0.00 0.43 0.43 91 1010.5
20260502215004 52 140 0.0 0.0 0.00 0.43 0.43 91 1010.5
20260502214504 52 140 0.0 0.0 0.00 0.43 0.43 91 1010.5
20260502212503 52 27 0.0 0.0 0.00 0.43 0.43 90 1010.4
20260502211503 52 27 0.0 0.0 0.00 0.43 0.43 90 1010.3
20260502211004 52 27 0.0 0.0 0.00 0.43 0.43 90 1010.4
20260502210504 53 27 0.0 0.0 0.00 0.43 0.43 91 1010.5
20260502210004 53 27 0.0 0.0 0.00 0.43 0.43 91 1010.5
20260502205504 53 27 0.0 0.0 0.00 0.43 0.43 91 1010.5
20260502205004 53 27 0.0 0.0 0.00 0.43 0.43 91 1010.6
20260502204503 53 26 0.0 0.0 0.00 0.43 0.43 91 1010.6
20260502204004 53 25 0.0 0.9 0.01 0.43 0.43 91 1010.6
20260502203503 53 25 0.0 1.7 0.01 0.43 0.43 90 1010.7
20260502203003 53 25 0.0 0.0 0.01 0.43 0.43 90 1010.8
20260502202503 53 25 0.0 0.9 0.01 0.43 0.43 90 1010.8
20260502202003 53 25 0.0 0.0 0.01 0.43 0.43 90 1010.7
20260502201505 53 25 0.0 0.0 0.01 0.43 0.43 90 1010.7
20260502201004 53 25 0.0 0.0 0.01 0.43 0.43 90 1010.7
20260502200503 53 25 0.0 0.0 0.01 0.43 0.43 90 1010.7
20260502200004 53 25 0.0 0.9 0.01 0.43 0.43 90 1010.7
20260502195504 53 25 0.9 1.7 0.02 0.43 0.43 90 1010.8
20260502194503 53 24 0.9 1.7 0.02 0.43 0.43 90 1010.7
20260502194004 53 23 0.9 1.7 0.02 0.42 0.42 90 1010.7
20260502193504 53 17 0.9 1.7 0.02 0.42 0.42 90 1010.7
20260502193004 53 0 0.0 0.9 0.02 0.42 0.42 90 1010.7
20260502192503 53 355 0.9 1.7 0.02 0.42 0.42 89 1010.6
20260502192004 53 342 0.0 0.0 0.03 0.42 0.42 89 1010.6
20260502191504 53 338 0.0 0.0 0.03 0.42 0.42 89 1010.6
20260502191004 53 332 0.0 0.0 0.03 0.42 0.42 89 1010.7
20260502190503 53 332 0.0 1.7 0.04 0.42 0.42 89 1010.7
20260502190004 53 333 0.0 1.7 0.04 0.42 0.42 89 1010.7
20260502185503 53 333 0.0 0.0 0.04 0.41 0.41 89 1010.8
20260502185004 53 333 0.0 0.9 0.04 0.41 0.41 89 1010.8
20260502184505 53 333 0.0 0.0 0.03 0.40 0.40 89 1010.8
20260502184004 54 333 0.0 0.0 0.03 0.40 0.40 89 1010.8
20260502183504 54 333 0.0 1.7 0.03 0.40 0.40 89 1010.9
20260502183004 54 333 0.9 1.7 0.04 0.40 0.40 89 1010.9
20260502182504 54 331 0.9 2.6 0.04 0.39 0.39 89 1010.9
20260502182004 54 331 0.9 2.6 0.03 0.39 0.39 89 1010.9
20260502181004 54 331 0.9 1.7 0.05 0.39 0.39 89 1011.1
20260502180504 54 331 0.9 1.7 0.05 0.38 0.38 89 1011.1
20260502170503 55 48 0.9 2.6 0.17 0.33 0.33 88 1011.5
20260502164004 55 177 1.7 2.6 0.19 0.28 0.28 86 1012.0
20260502163004 55 136 0.9 1.7 0.18 0.24 0.24 85 1012.1
20260502162503 55 136 0.0 0.0 0.18 0.23 0.23 85 1012.2
20260502162004 55 136 0.0 0.0 0.18 0.22 0.22 84 1012.1
20260502161504 55 134 0.0 0.9 0.18 0.20 0.20 84 1012.2
20260502161004 56 134 0.0 0.9 0.17 0.19 0.19 83 1012.2
20260502160504 56 134 0.9 0.9 0.16 0.17 0.17 82 1012.4
20260502151504 59 117 0.9 2.6 0.02 0.02 0.02 74 1012.8
20260502151004 60 117 0.9 1.7 0.02 0.02 0.02 73 1012.7
20260502150503 60 117 0.0 0.9 0.01 0.01 0.01 70 1012.7
20260502123503 66 64 1.7 2.6 0.00 0.00 0.00 61 1014.1
20260502123004 65 215 0.9 2.6 0.00 0.00 0.00 61 1014.2
20260502122004 65 228 1.7 4.3 0.00 0.00 0.00 61 1014.4
20260502121504 65 228 1.7 5.2 0.00 0.00 0.00 60 1014.5
20260502120503 65 281 2.6 7.8 0.00 0.00 0.00 61 1014.6
20260502115003 65 123 1.7 2.6 0.00 0.00 0.00 62 1014.8
20260502114004 64 114 2.6 6.1 0.00 0.00 0.00 62 1014.9
20260502113503 64 125 2.6 6.1 0.00 0.00 0.00 63 1015.0
20260502113004 64 146 3.5 6.1 0.00 0.00 0.00 64 1015.1
20260502112504 63 95 1.7 2.6 0.00 0.00 0.00 65 1015.2
20260502112003 62 99 4.3 7.8 0.00 0.00 0.00 68 1015.4
20260502111504 62 119 0.9 5.2 0.00 0.00 0.00 68 1015.5
20260502111004 61 142 1.7 5.2 0.00 0.00 0.00 68 1015.7
20260502110504 61 163 2.6 6.1 0.00 0.00 0.00 66 1015.7
20260502110004 61 130 3.5 7.0 0.00 0.00 0.00 68 1015.8
20260502105503 61 186 2.6 7.8 0.00 0.00 0.00 69 1015.8
20260502105003 60 112 3.5 8.7 0.00 0.00 0.00 69 1015.9
20260502104503 60 202 2.6 5.2 0.00 0.00 0.00 68 1016.0
20260502104004 61 214 1.7 2.6 0.00 0.00 0.00 67 1015.9
20260502103504 61 215 1.7 4.3 0.00 0.00 0.00 66 1015.9
20260502103003 61 185 1.7 2.6 0.00 0.00 0.00 67 1016.0
20260502102504 61 181 3.5 6.1 0.00 0.00 0.00 67 1016.0
20260502102005 61 134 1.7 6.1 0.00 0.00 0.00 72 1016.0
20260502101504 60 114 4.3 7.0 0.00 0.00 0.00 70 1016.0
20260502101005 60 102 2.6 5.2 0.00 0.00 0.00 72 1016.1
20260502100504 59 134 3.5 6.1 0.00 0.00 0.00 73 1016.2
20260502091004 57 231 0.9 1.7 0.00 0.00 0.00 81 1016.4
20260502071003 49 233 0.0 0.9 0.00 0.00 0.00 91 1017.2
20260502070504 49 233 0.0 0.9 0.00 0.00 0.00 92 1017.2
20260502070004 48 201 0.0 0.9 0.00 0.00 0.00 93 1017.2
20260502065503 48 229 0.0 0.0 0.00 0.00 0.00 93 1017.2
20260502065005 47 229 0.0 0.0 0.00 0.00 0.00 93 1017.2
20260502064504 47 229 0.0 0.0 0.00 0.00 0.00 93 1017.3
20260502064003 47 229 0.0 0.0 0.00 0.00 0.00 94 1017.3
20260502063504 46 229 0.0 0.0 0.00 0.00 0.00 94 1017.3
20260502063004 46 229 0.0 0.0 0.00 0.00 0.00 94 1017.4
20260502062504 46 229 0.0 0.0 0.00 0.00 0.00 94 1017.4
20260502062004 45 229 0.0 0.0 0.00 0.00 0.00 94 1017.5
20260502061504 45 229 0.0 0.0 0.00 0.00 0.00 94 1017.5
20260502061004 44 229 0.0 0.0 0.00 0.00 0.00 94 1017.6
20260502060503 44 229 0.0 0.0 0.00 0.00 0.00 94 1017.6
20260502060004 44 229 0.0 0.0 0.00 0.00 0.00 93 1017.6
20260502055004 43 229 0.0 0.0 0.00 0.00 0.00 93 1017.5
20260502054503 43 229 0.0 0.0 0.00 0.00 0.00 92 1017.6
20260502054004 42 229 0.0 0.0 0.00 0.00 0.00 92 1017.6
20260502053504 42 229 0.0 0.0 0.00 0.00 0.00 92 1017.6
20260502053004 42 229 0.0 0.0 0.00 0.00 0.00 92 1017.6
20260502052504 42 229 0.0 0.0 0.00 0.00 0.00 91 1017.5
20260502052004 42 229 0.0 0.0 0.00 0.00 0.00 91 1017.5
20260502051504 42 229 0.0 0.0 0.00 0.00 0.00 91 1017.4
20260502051004 42 229 0.0 0.0 0.00 0.00 0.00 91 1017.4
20260502050504 42 229 0.0 0.0 0.00 0.00 0.00 91 1017.3
20260502050003 42 226 0.0 0.0 0.00 0.00 0.00 91 1017.2
20260502045504 42 226 0.0 0.0 0.00 0.00 0.00 91 1017.2
20260502044504 42 226 0.0 0.0 0.00 0.00 0.00 91 1017.2
20260502044004 42 226 0.0 0.0 0.00 0.00 0.00 91 1017.1
20260502043003 42 226 0.0 0.0 0.00 0.00 0.00 91 1017.1
20260502042503 42 226 0.0 0.0 0.00 0.00 0.00 91 1017.1
20260502042004 42 226 0.0 0.0 0.00 0.00 0.00 91 1017.2
20260502041503 42 226 0.0 0.0 0.00 0.00 0.00 91 1017.3
20260502041003 42 226 0.0 0.0 0.00 0.00 0.00 91 1017.3
20260502040504 42 226 0.0 0.0 0.00 0.00 0.00 91 1017.3
20260502040004 42 226 0.0 0.0 0.00 0.00 0.00 91 1017.3
20260502035503 42 226 0.9 0.9 0.00 0.00 0.00 90 1017.3
20260502035003 42 226 0.0 0.0 0.00 0.00 0.00 90 1017.4
20260502034004 42 226 0.0 0.9 0.00 0.00 0.00 90 1017.5
20260502033503 43 226 0.0 0.9 0.00 0.00 0.00 90 1017.6
20260502033004 43 226 0.0 0.9 0.00 0.00 0.00 90 1017.7
20260502032504 43 226 0.0 0.0 0.00 0.00 0.00 91 1017.7
20260502031504 43 226 0.0 0.0 0.00 0.00 0.00 90 1017.8
20260502031004 43 226 0.0 2.6 0.00 0.00 0.00 90 1017.9
20260502030503 43 226 0.9 1.7 0.00 0.00 0.00 90 1017.9
20260502030004 43 226 0.9 1.7 0.00 0.00 0.00 90 1017.9
20260502025503 43 226 0.0 0.0 0.00 0.00 0.00 90 1018.0
20260502025003 43 226 0.0 0.0 0.00 0.00 0.00 90 1018.0
20260502024503 43 226 0.0 0.0 0.00 0.00 0.00 90 1018.0
20260502024004 43 226 0.0 0.0 0.00 0.00 0.00 90 1018.0
20260502023503 43 226 0.0 0.9 0.00 0.00 0.00 90 1018.1
20260502022503 44 225 0.0 1.7 0.00 0.00 0.00 90 1018.2
20260502022003 44 225 0.0 1.7 0.00 0.00 0.00 90 1018.4
20260502021503 44 225 0.0 1.7 0.00 0.00 0.00 90 1018.4
20260502020504 44 225 1.7 2.6 0.00 0.00 0.00 90 1018.4
20260502020004 44 226 1.7 2.6 0.00 0.00 0.00 90 1018.4
20260502015504 44 226 0.0 0.9 0.00 0.00 0.00 89 1018.4
20260502014504 44 226 1.7 2.6 0.00 0.00 0.00 89 1018.5
20260502014004 44 226 0.0 1.7 0.00 0.00 0.00 89 1018.5
20260502013504 44 226 0.9 1.7 0.00 0.00 0.00 89 1018.5
20260502013005 45 226 0.0 0.0 0.00 0.00 0.00 89 1018.5
20260502012503 45 226 0.0 0.0 0.00 0.00 0.00 89 1018.5
20260502012003 45 226 0.0 0.0 0.00 0.00 0.00 89 1018.7
20260502011504 45 226 0.0 0.0 0.00 0.00 0.00 89 1018.6
20260502011004 45 226 0.0 0.0 0.00 0.00 0.00 89 1018.6
20260502010004 46 226 0.0 1.7 0.00 0.00 0.00 89 1018.7
20260502005504 46 226 1.7 2.6 0.00 0.00 0.00 89 1018.8
20260502005004 46 226 0.9 2.6 0.00 0.00 0.00 89 1018.9
20260502004504 46 226 1.7 2.6 0.00 0.00 0.00 89 1018.8
20260502004004 46 226 1.7 2.6 0.00 0.00 0.00 89 1018.9
20260502003004 46 226 0.0 0.0 0.00 0.00 0.00 88 1019.0
20260502002503 46 226 0.0 0.9 0.00 0.00 0.00 88 1019.1
20260502002003 47 226 0.0 0.9 0.00 0.00 0.00 88 1019.0
20260502000504 47 226 0.0 0.0 0.00 0.00 0.00 88 1019.0
20260502000004 48 226 0.0 0.0 0.00 0.00 0.00 88 1019.0
20260501235503 48 226 0.0 1.7 0.00 0.00 0.00 88 1019.0
20260501234504 48 226 0.0 1.7 0.00 0.00 0.00 89 1019.0
20260501234004 48 226 0.9 0.9 0.00 0.00 0.00 89 1019.1
20260501232503 49 226 1.7 2.6 0.00 0.00 0.00 89 1019.2
20260501232004 49 231 2.6 2.6 0.00 0.00 0.00 89 1019.3
20260501231003 49 235 1.7 2.6 0.00 0.00 0.00 89 1019.4
20260501230503 49 236 1.7 2.6 0.00 0.00 0.00 88 1019.5
20260501230004 49 236 0.0 0.9 0.00 0.00 0.00 88 1019.4
20260501225504 49 236 0.9 1.7 0.00 0.00 0.00 88 1019.4
20260501225004 49 236 0.9 2.6 0.00 0.00 0.00 88 1019.4
20260501224004 49 236 1.7 2.6 0.00 0.00 0.00 88 1019.4
20260501223504 49 236 2.6 4.3 0.00 0.00 0.00 88 1019.4
20260501223004 49 236 2.6 4.3 0.00 0.00 0.00 88 1019.4
20260501222504 49 242 1.7 2.6 0.00 0.00 0.00 88 1019.5
20260501222004 49 249 1.7 2.6 0.00 0.00 0.00 88 1019.5
20260501221503 49 250 1.7 2.6 0.00 0.00 0.00 88 1019.5